Back to catalog

STARLINK-2505

AliveCommunicationsVLEO
NORAD 48411·PAYLOAD·🇺🇸 United States

Launched May 4, 2021 from Cape Canaveral Space Force Station

Loading…

Next Passes (next 24 hours)

TLE

FreshSource: CelesTrak SupGP

Epoch: Sep 14, 2026, 13:21 UTC

1 48411C 21038BL  26257.55673611  .00044376  00000+0  14279-2 0  2573
2 48411  53.1586 134.9107 0001000  97.2813  73.7688 15.31659831    16

Track STARLINK-2505 in real time with AllMySat

Download on the App Store